Powrót do katalogu

STARLINK-36297

AktywnyŁącznośćSSO
NORAD 67671·PAYLOAD·🇺🇸 United States

Wystrzelony Feb 2, 2026 z Vandenberg Space Force Base

Loading…

Następne Przeloty (najbliższe 24 godziny)

TLE

ŚwieżeSource: CelesTrak SupGP

Epoka: Sep 14, 2026, 23:14 UTC

1 67671C 26022Z   26257.96854167  .00034247  00000+0  10632-2 0  2577
2 67671  97.2845 289.6785 0001084  98.3106 263.9428 15.33418926    16

Śledź STARLINK-36297 w czasie rzeczywistym z AllMySat

Download on the App Store